Погода в Сукхотхае

Таиланд     17°00′40″N   99°49′13″E
темп.,
°C
ветер,
м/с
пор.,
м/с
влажн.,
%
обл.,
%
осадки,
мм/ч
давл.,
гПа
погр.,
м
7 мая, пт
пт701:00+29ю245970 0.0 1011128
04:00+28зсз1163100 0.0 101116
07:00+29ссз1264100 0.0 1012179
10:00+33всв114798 0.0 10131134
13:00+36юв323579 0.0 10102125
16:00+36юв2233100 0.0 10072142
19:00+33ююв3541100 0.0 1007139
22:00+31ююз375192 0.0 1009235
8 мая, сб
сб801:00+29ююз125784 0.1 100851
04:00+28юв1161100 0.0 100814
07:00+29юв1160100 0.0 1010153
10:00+34юз014471 0.0 10111164
13:00+38ю113159 0.0 10082257
16:00+39ююв322783 0.0 10033053
19:00+31з585294 0.6 1006345
22:00+30ююз356011 0.3 1009249
9 мая, вс
вс901:00+28св236686 0.8 1010383
04:00+27с1276100 0.4 1009267
07:00+26ссв2278100 0.4 1010338
10:00+29сз116874 0.0 1011548
13:00+33сз324989 0.0 10081328
16:00+30зсз2357100 0.3 1005247
19:00+30ююз115713 0.9 100514
22:00+29ю11655 1.0 100720
10 мая, пн
пн1001:00+27зюз117124 2.2 100612
04:00+27зсз00755 1.5 100612
07:00+28ю127040 1.5 1007162
10:00+33зюз344525 0.0 10091245
13:00+37ююз343336 0.0 10062303
16:00+38ююз233280 0.0 10032656
19:00+30зюз245685 1.1 1004113
22:00+30зюз245832 0.4 1006105
11 мая, вт
вт1101:00+29з376149 0.4 1005194
04:00+28ю22655 0.0 100634
07:00+29юз12624 0.0 1008151
10:00+34зюз224276 0.0 10081404
13:00+37ююз223513 0.0 10052227
16:00+38юз223041 0.0 10022684
19:00+35зюз4841100 0.1 1003636
22:00+32зюз38525 0.0 1005380